• In Deutschland
  • Länderverzeichnis
  • Für 7 Tage
  • Wassertemperatur
  • Satellitenkarten
  • Wetterkarte
  • Widgets
  • user-avatar
    Anmelden

    Stündliche Wetter Townsville

    Heute, 30 März, Donnerstag

    Zeit Temperatur Niederschläge Wind Luftdruck Luftfeuchtigkeit
    00:00 +28°C° 0,4 mm 5 m/S 748 mmHg 90%
    01:00 +28°C° 0,4 mm 5 m/S 748 mmHg 89%
    02:00 +27°C° 0,3 mm 5 m/S 748 mmHg 89%
    03:00 +27°C° 0,3 mm 5 m/S 748 mmHg 88%
    04:00 +27°C° 0,3 mm 5 m/S 748 mmHg 88%
    05:00 +27°C° 0,2 mm 4 m/S 748 mmHg 88%
    06:00 +27°C° 0,2 mm 4 m/S 749 mmHg 87%
    07:00 +27°C° 0,2 mm 4 m/S 749 mmHg 87%
    08:00 +29°C° 0,1 mm 4 m/S 750 mmHg 79%
    09:00 +32°C° 0,1 mm 4 m/S 750 mmHg 70%
    10:00 +34°C° 0,1 mm 4 m/S 750 mmHg 62%
    11:00 +36°C° 0 mm 4 m/S 750 mmHg 53%
    12:00 +37°C° 0 mm 4 m/S 750 mmHg 45%
    13:00 +40°C° 0 mm 4 m/S 749 mmHg 37%
    14:00 +38°C° 0 mm 4 m/S 749 mmHg 41%
    15:00 +38°C° 0 mm 4 m/S 748 mmHg 44%
    16:00 +38°C° 0 mm 4 m/S 748 mmHg 47%
    17:00 +35°C° 0,3 mm 4 m/S 748 mmHg 59%
    18:00 +33°C° 0,3 mm 4 m/S 749 mmHg 72%
    19:00 +29°C° 0,3 mm 3 m/S 749 mmHg 84%
    20:00 +29°C° 0 mm 3 m/S 749 mmHg 88%
    21:00 +29°C° 0 mm 3 m/S 750 mmHg 92%
    22:00 +28°C° 0 mm 3 m/S 750 mmHg 95%
    23:00 +28°C° 0,1 mm 3 m/S 750 mmHg 95%

    Morgen, 31 März, Freitag

    Zeit Temperatur Niederschläge Wind Luftdruck Luftfeuchtigkeit
    00:00 +28°C° 0,1 mm 3 m/S 750 mmHg 95%
    01:00 +28°C° 0,1 mm 3 m/S 750 mmHg 95%
    02:00 +28°C° 0,4 mm 3 m/S 750 mmHg 91%
    03:00 +27°C° 0,4 mm 3 m/S 750 mmHg 87%
    04:00 +27°C° 0,4 mm 3 m/S 749 mmHg 82%
    05:00 +26°C° 0 mm 3 m/S 750 mmHg 78%
    06:00 +26°C° 0 mm 4 m/S 750 mmHg 74%
    07:00 +25°C° 0 mm 5 m/S 751 mmHg 70%
    08:00 +27°C° 0 mm 4 m/S 751 mmHg 63%
    09:00 +29°C° 0 mm 4 m/S 752 mmHg 57%
    10:00 +30°C° 0 mm 4 m/S 752 mmHg 50%
    11:00 +33°C° 0 mm 3 m/S 751 mmHg 47%
    12:00 +35°C° 0 mm 3 m/S 751 mmHg 44%
    13:00 +36°C° 0 mm 2 m/S 750 mmHg 40%
    14:00 +36°C° 0 mm 2 m/S 750 mmHg 42%
    15:00 +36°C° 0 mm 3 m/S 750 mmHg 44%
    16:00 +36°C° 0 mm 3 m/S 749 mmHg 46%
    17:00 +33°C° 0 mm 3 m/S 750 mmHg 57%
    18:00 +30°C° 0 mm 3 m/S 750 mmHg 68%
    19:00 +27°C° 0 mm 3 m/S 751 mmHg 79%
    20:00 +27°C° 0 mm 3 m/S 751 mmHg 84%
    21:00 +26°C° 0 mm 3 m/S 752 mmHg 89%
    22:00 +26°C° 0 mm 3 m/S 752 mmHg 94%
    23:00 +25°C° 0 mm 3 m/S 752 mmHg 96%

    übermorgen, 1 April, Samstag

    Zeit Temperatur Niederschläge Wind Luftdruck Luftfeuchtigkeit
    00:00 +25°C° 0 mm 3 m/S 752 mmHg 97%
    01:00 +24°C° 0 mm 3 m/S 752 mmHg 98%
    02:00 +24°C° 0 mm 3 m/S 751 mmHg 98%
    03:00 +24°C° 0 mm 3 m/S 751 mmHg 98%
    04:00 +24°C° 0 mm 3 m/S 751 mmHg 97%
    05:00 +24°C° 0 mm 3 m/S 751 mmHg 96%
    06:00 +24°C° 0 mm 3 m/S 752 mmHg 94%
    07:00 +24°C° 0 mm 3 m/S 752 mmHg 92%
    08:00 +26°C° 0 mm 3 m/S 752 mmHg 82%
    09:00 +28°C° 0 mm 3 m/S 753 mmHg 72%
    10:00 +30°C° 0 mm 3 m/S 753 mmHg 62%
    11:00 +31°C° 0 mm 3 m/S 753 mmHg 56%
    12:00 +33°C° 0 mm 3 m/S 752 mmHg 50%
    13:00 +34°C° 0 mm 3 m/S 752 mmHg 44%
    14:00 +34°C° 0 mm 3 m/S 751 mmHg 46%
    15:00 +34°C° 0 mm 4 m/S 751 mmHg 48%
    16:00 +33°C° 0 mm 4 m/S 750 mmHg 49%
    17:00 +30°C° 0 mm 4 m/S 751 mmHg 58%
    18:00 +27°C° 0 mm 3 m/S 751 mmHg 68%
    19:00 +25°C° 0 mm 3 m/S 752 mmHg 77%
    20:00 +25°C° 0 mm 3 m/S 752 mmHg 79%
    21:00 +24°C° 0 mm 3 m/S 753 mmHg 82%
    22:00 +24°C° 0 mm 3 m/S 753 mmHg 85%
    23:00 +22°C° 0 mm 3 m/S 753 mmHg 86%

    2 April, Sonntag

    Zeit Temperatur Niederschläge Wind Luftdruck Luftfeuchtigkeit
    00:00 +22°C° 0 mm 3 m/S 753 mmHg 87%
    01:00 +22°C° 0 mm 3 m/S 753 mmHg 88%
    02:00 +21°C° 0 mm 3 m/S 752 mmHg 89%
    03:00 +21°C° 0 mm 3 m/S 752 mmHg 89%
    04:00 +20°C° 0 mm 3 m/S 752 mmHg 90%
    05:00 +21°C° 0 mm 3 m/S 753 mmHg 89%
    06:00 +21°C° 0 mm 4 m/S 753 mmHg 87%
    07:00 +21°C° 0 mm 4 m/S 753 mmHg 86%
    08:00 +25°C° 0 mm 4 m/S 754 mmHg 79%
    09:00 +27°C° 0 mm 5 m/S 754 mmHg 72%
    10:00 +29°C° 0 mm 5 m/S 754 mmHg 65%
    11:00 +30°C° 0 mm 5 m/S 754 mmHg 62%
    12:00 +32°C° 0 mm 6 m/S 753 mmHg 58%
    13:00 +32°C° 0 mm 6 m/S 753 mmHg 55%
    14:00 +32°C° 0 mm 6 m/S 753 mmHg 57%
    15:00 +30°C° 0 mm 6 m/S 752 mmHg 59%
    16:00 +30°C° 0 mm 6 m/S 752 mmHg 61%
    17:00 +28°C° 0 mm 6 m/S 753 mmHg 67%
    18:00 +27°C° 0 mm 6 m/S 753 mmHg 74%
    19:00 +25°C° 0 mm 5 m/S 754 mmHg 80%
    20:00 +25°C° 0 mm 5 m/S 754 mmHg 84%
    21:00 +23°C° 0 mm 6 m/S 755 mmHg 87%
    22:00 +23°C° 0 mm 6 m/S 755 mmHg 90%
    23:00 +23°C° 0,1 mm 5 m/S 755 mmHg 92%

    3 April, Montag

    Zeit Temperatur Niederschläge Wind Luftdruck Luftfeuchtigkeit
    00:00 +22°C° 0,1 mm 5 m/S 755 mmHg 94%
    01:00 +22°C° 0,1 mm 5 m/S 754 mmHg 96%
    02:00 +22°C° 0,2 mm 5 m/S 754 mmHg 96%
    03:00 +22°C° 0,2 mm 5 m/S 754 mmHg 95%
    04:00 +22°C° 0,2 mm 5 m/S 753 mmHg 95%
    05:00 +22°C° 0,2 mm 5 m/S 754 mmHg 95%
    06:00 +22°C° 0,2 mm 5 m/S 754 mmHg 94%
    07:00 +22°C° 0,2 mm 6 m/S 755 mmHg 93%
    08:00 +24°C° 0,1 mm 6 m/S 755 mmHg 85%
    09:00 +26°C° 0,1 mm 6 m/S 755 mmHg 77%
    10:00 +28°C° 0,1 mm 7 m/S 755 mmHg 69%
    11:00 +29°C° 0,2 mm 7 m/S 755 mmHg 66%
    12:00 +30°C° 0,2 mm 7 m/S 754 mmHg 63%
    13:00 +32°C° 0,2 mm 7 m/S 753 mmHg 60%
    14:00 +29°C° 0,2 mm 7 m/S 753 mmHg 66%
    15:00 +28°C° 0,2 mm 7 m/S 753 mmHg 72%
    16:00 +27°C° 0,2 mm 6 m/S 752 mmHg 78%
    17:00 +26°C° 0,4 mm 6 m/S 753 mmHg 81%
    18:00 +26°C° 0,4 mm 6 m/S 753 mmHg 84%
    19:00 +24°C° 0,4 mm 6 m/S 754 mmHg 87%
    20:00 +24°C° 0,5 mm 6 m/S 754 mmHg 88%
    21:00 +24°C° 0,5 mm 7 m/S 755 mmHg 89%
    22:00 +23°C° 0,5 mm 7 m/S 755 mmHg 89%
    23:00 +23°C° 0 mm 7 m/S 754 mmHg 91%

    4 April, Dienstag

    Zeit Temperatur Niederschläge Wind Luftdruck Luftfeuchtigkeit
    00:00 +22°C° 0 mm 7 m/S 754 mmHg 93%
    01:00 +22°C° 0 mm 7 m/S 754 mmHg 94%
    02:00 +21°C° 0,1 mm 7 m/S 754 mmHg 95%
    03:00 +21°C° 0,1 mm 7 m/S 753 mmHg 95%
    04:00 +21°C° 0,1 mm 7 m/S 753 mmHg 95%
    05:00 +21°C° 0,1 mm 7 m/S 754 mmHg 94%
    06:00 +21°C° 0,1 mm 7 m/S 754 mmHg 94%
    07:00 +21°C° 0,1 mm 7 m/S 754 mmHg 93%
    08:00 +23°C° 0,1 mm 7 m/S 755 mmHg 87%
    09:00 +24°C° 0,1 mm 7 m/S 755 mmHg 82%
    10:00 +26°C° 0,1 mm 7 m/S 755 mmHg 77%
    11:00 +27°C° 0,1 mm 8 m/S 754 mmHg 74%
    12:00 +28°C° 0,1 mm 8 m/S 754 mmHg 71%
    13:00 +28°C° 0,1 mm 8 m/S 753 mmHg 68%
    14:00 +28°C° 0,1 mm 8 m/S 753 mmHg 69%
    15:00 +29°C° 0,1 mm 7 m/S 753 mmHg 70%
    16:00 +29°C° 0,1 mm 7 m/S 752 mmHg 70%
    17:00 +28°C° 0,1 mm 7 m/S 753 mmHg 73%
    18:00 +27°C° 0,1 mm 8 m/S 753 mmHg 75%
    19:00 +26°C° 0,1 mm 8 m/S 754 mmHg 78%
    20:00 +24°C° 0 mm 8 m/S 754 mmHg 80%
    21:00 +23°C° 0 mm 8 m/S 754 mmHg 83%
    22:00 +23°C° 0 mm 8 m/S 754 mmHg 85%
    23:00 +22°C° 0 mm 7 m/S 754 mmHg 87%
    Mehr zeigen